When you browse on this site, cookies collect data to enhance your experience and personalize the content and advertising you see.
Visit our Privacy Policy to learn more. By continuing to use the site, you agree to this use of cookies and data.
  • In France
  • List of Countries
  • For 7 days
  • Water Temperature
  • Satellite Maps
  • Weather Map
  • Weather Widgets
  • user-avatar
    Login

    Hourly Weather Barra

    Today, 26 June, Wednesday

    Time Temperature Precipitation Wind Pressure Humidity
    00:00 +17°C° 0.2 mm 3 mps 753 mmHg 93%
    01:00 +17°C° 0.2 mm 3 mps 753 mmHg 93%
    02:00 +17°C° 0.3 mm 4 mps 753 mmHg 93%
    03:00 +18°C° 0.3 mm 4 mps 752 mmHg 92%
    04:00 +18°C° 0 mm 4 mps 752 mmHg 93%
    05:00 +18°C° 0.1 mm 4 mps 752 mmHg 93%
    06:00 +17°C° 0.1 mm 4 mps 753 mmHg 93%
    07:00 +17°C° 0.1 mm 4 mps 753 mmHg 93%
    08:00 +18°C° 0 mm 4 mps 753 mmHg 86%
    09:00 +20°C° 0 mm 4 mps 753 mmHg 79%
    10:00 +21°C° 0 mm 3 mps 754 mmHg 71%
    11:00 +22°C° 0 mm 3 mps 753 mmHg 66%
    12:00 +22°C° 0 mm 3 mps 752 mmHg 62%
    13:00 +23°C° 0 mm 4 mps 752 mmHg 57%
    14:00 +23°C° 0 mm 4 mps 751 mmHg 58%
    15:00 +22°C° 0 mm 4 mps 751 mmHg 60%
    16:00 +22°C° 0 mm 3 mps 751 mmHg 63%
    17:00 +21°C° 0 mm 3 mps 751 mmHg 69%
    18:00 +20°C° 0 mm 3 mps 752 mmHg 74%
    19:00 +19°C° 0 mm 3 mps 752 mmHg 80%
    20:00 +19°C° 0.1 mm 3 mps 752 mmHg 81%
    21:00 +19°C° 0.1 mm 3 mps 753 mmHg 83%
    22:00 +19°C° 0 mm 3 mps 753 mmHg 85%
    23:00 +19°C° 0.3 mm 3 mps 753 mmHg 86%

    Tomorrow, 27 June, Thursday

    Time Temperature Precipitation Wind Pressure Humidity
    00:00 +19°C° 0.3 mm 4 mps 752 mmHg 87%
    01:00 +19°C° 0.3 mm 4 mps 752 mmHg 89%
    02:00 +19°C° 0.3 mm 4 mps 752 mmHg 90%
    03:00 +19°C° 0.3 mm 4 mps 752 mmHg 91%
    04:00 +19°C° 0.3 mm 5 mps 752 mmHg 92%
    05:00 +19°C° 0.2 mm 5 mps 752 mmHg 92%
    06:00 +17°C° 0.2 mm 5 mps 752 mmHg 92%
    07:00 +17°C° 0.2 mm 5 mps 753 mmHg 92%
    08:00 +19°C° 0 mm 5 mps 753 mmHg 87%
    09:00 +20°C° 0 mm 5 mps 753 mmHg 82%
    10:00 +21°C° 0 mm 5 mps 753 mmHg 77%
    11:00 +22°C° 0 mm 5 mps 753 mmHg 73%
    12:00 +22°C° 0 mm 4 mps 752 mmHg 69%
    13:00 +23°C° 0 mm 4 mps 752 mmHg 65%
    14:00 +23°C° 0 mm 4 mps 751 mmHg 66%
    15:00 +23°C° 0 mm 4 mps 751 mmHg 68%
    16:00 +23°C° 0 mm 4 mps 751 mmHg 69%
    17:00 +22°C° 0.1 mm 4 mps 751 mmHg 76%
    18:00 +20°C° 0.1 mm 4 mps 752 mmHg 84%
    19:00 +19°C° 0.1 mm 4 mps 752 mmHg 91%
    20:00 +19°C° 0.3 mm 5 mps 752 mmHg 92%
    21:00 +20°C° 0.3 mm 5 mps 753 mmHg 93%
    22:00 +20°C° 0.3 mm 6 mps 753 mmHg 94%
    23:00 +20°C° 0.2 mm 5 mps 752 mmHg 94%

    Day after tomorrow, 28 June, Friday

    Time Temperature Precipitation Wind Pressure Humidity
    00:00 +20°C° 0.2 mm 5 mps 752 mmHg 94%
    01:00 +20°C° 0.2 mm 5 mps 752 mmHg 95%
    02:00 +20°C° 0.2 mm 5 mps 752 mmHg 95%
    03:00 +20°C° 0.2 mm 5 mps 751 mmHg 95%
    04:00 +20°C° 0.2 mm 5 mps 751 mmHg 95%
    05:00 +20°C° 0.2 mm 5 mps 751 mmHg 95%
    06:00 +20°C° 0.2 mm 5 mps 752 mmHg 95%
    07:00 +20°C° 0.2 mm 5 mps 752 mmHg 95%
    08:00 +20°C° 0.4 mm 5 mps 752 mmHg 94%
    09:00 +21°C° 0.4 mm 5 mps 752 mmHg 93%
    10:00 +21°C° 0.4 mm 5 mps 753 mmHg 92%
    11:00 +21°C° 0.5 mm 5 mps 752 mmHg 92%
    12:00 +22°C° 0.5 mm 5 mps 752 mmHg 92%
    13:00 +22°C° 0.5 mm 5 mps 752 mmHg 92%
    14:00 +21°C° 0.5 mm 5 mps 751 mmHg 92%
    15:00 +21°C° 0.5 mm 6 mps 751 mmHg 92%
    16:00 +21°C° 0.5 mm 6 mps 751 mmHg 93%
    17:00 +21°C° 0.4 mm 6 mps 751 mmHg 93%
    18:00 +21°C° 0.4 mm 6 mps 752 mmHg 94%
    19:00 +20°C° 0.4 mm 6 mps 752 mmHg 94%
    20:00 +20°C° 0.5 mm 6 mps 752 mmHg 94%
    21:00 +20°C° 0.5 mm 6 mps 752 mmHg 94%
    22:00 +20°C° 0.5 mm 6 mps 753 mmHg 93%
    23:00 +20°C° 0.6 mm 5 mps 753 mmHg 93%

    29 June, Saturday

    Time Temperature Precipitation Wind Pressure Humidity
    00:00 +20°C° 0.6 mm 5 mps 753 mmHg 93%
    01:00 +20°C° 0.6 mm 5 mps 752 mmHg 93%
    02:00 +20°C° 0.3 mm 5 mps 752 mmHg 93%
    03:00 +19°C° 0.3 mm 5 mps 752 mmHg 93%
    04:00 +19°C° 0.3 mm 4 mps 752 mmHg 93%
    05:00 +19°C° 0.4 mm 4 mps 752 mmHg 94%
    06:00 +19°C° 0.4 mm 4 mps 752 mmHg 94%
    07:00 +19°C° 0.4 mm 4 mps 753 mmHg 95%
    08:00 +19°C° 0.5 mm 4 mps 753 mmHg 94%
    09:00 +20°C° 0.5 mm 5 mps 753 mmHg 93%
    10:00 +20°C° 0.5 mm 5 mps 753 mmHg 93%
    11:00 +20°C° 0.3 mm 5 mps 753 mmHg 91%
    12:00 +20°C° 0.3 mm 5 mps 753 mmHg 89%
    13:00 +20°C° 0.3 mm 5 mps 752 mmHg 87%
    14:00 +21°C° 0 mm 5 mps 752 mmHg 82%
    15:00 +21°C° 0 mm 5 mps 751 mmHg 78%
    16:00 +22°C° 0 mm 4 mps 751 mmHg 73%
    17:00 +20°C° 0 mm 4 mps 751 mmHg 78%
    18:00 +19°C° 0 mm 3 mps 751 mmHg 83%
    19:00 +18°C° 0 mm 3 mps 751 mmHg 88%
    20:00 +17°C° 0 mm 2 mps 752 mmHg 89%
    21:00 +17°C° 0 mm 2 mps 752 mmHg 90%
    22:00 +17°C° 0 mm 2 mps 752 mmHg 91%
    23:00 +17°C° 0.1 mm 2 mps 752 mmHg 92%

    30 June, Sunday

    Time Temperature Precipitation Wind Pressure Humidity
    00:00 +16°C° 0.1 mm 2 mps 752 mmHg 92%
    01:00 +16°C° 0.1 mm 2 mps 751 mmHg 92%
    02:00 +16°C° 0.1 mm 2 mps 751 mmHg 92%
    03:00 +16°C° 0.1 mm 3 mps 751 mmHg 92%
    04:00 +16°C° 0.1 mm 3 mps 751 mmHg 91%
    05:00 +16°C° 0 mm 3 mps 751 mmHg 92%
    06:00 +16°C° 0 mm 3 mps 751 mmHg 93%
    07:00 +16°C° 0 mm 3 mps 752 mmHg 94%
    08:00 +18°C° 0 mm 3 mps 752 mmHg 83%
    09:00 +20°C° 0 mm 3 mps 752 mmHg 72%
    10:00 +22°C° 0 mm 3 mps 752 mmHg 61%
    11:00 +22°C° 0 mm 4 mps 752 mmHg 58%
    12:00 +23°C° 0 mm 4 mps 751 mmHg 55%
    13:00 +25°C° 0 mm 5 mps 750 mmHg 51%
    14:00 +23°C° 0 mm 5 mps 750 mmHg 54%
    15:00 +23°C° 0 mm 4 mps 750 mmHg 56%
    16:00 +23°C° 0 mm 4 mps 749 mmHg 58%
    17:00 +21°C° 0 mm 4 mps 750 mmHg 67%
    18:00 +20°C° 0 mm 3 mps 750 mmHg 75%
    19:00 +18°C° 0 mm 3 mps 750 mmHg 83%
    20:00 +18°C° 0 mm 3 mps 751 mmHg 84%
    21:00 +17°C° 0 mm 3 mps 751 mmHg 86%
    22:00 +17°C° 0 mm 3 mps 751 mmHg 87%
    23:00 +17°C° 0 mm 3 mps 751 mmHg 88%

    1 July, Monday

    Time Temperature Precipitation Wind Pressure Humidity
    00:00 +17°C° 0 mm 3 mps 751 mmHg 89%
    01:00 +17°C° 0 mm 3 mps 751 mmHg 90%
    02:00 +16°C° 0 mm 3 mps 751 mmHg 90%
    03:00 +15°C° 0 mm 4 mps 750 mmHg 90%
    04:00 +15°C° 0 mm 4 mps 750 mmHg 90%
    05:00 +15°C° 0 mm 4 mps 751 mmHg 91%
    06:00 +15°C° 0 mm 4 mps 751 mmHg 91%
    07:00 +14°C° 0 mm 4 mps 751 mmHg 91%
    08:00 +17°C° 0 mm 4 mps 751 mmHg 83%
    09:00 +19°C° 0 mm 4 mps 751 mmHg 74%
    10:00 +21°C° 0 mm 4 mps 751 mmHg 66%
    11:00 +21°C° 0 mm 4 mps 751 mmHg 68%
    12:00 +21°C° 0 mm 5 mps 750 mmHg 70%
    13:00 +21°C° 0 mm 5 mps 750 mmHg 72%
    14:00 +21°C° 0.2 mm 5 mps 750 mmHg 75%
    15:00 +21°C° 0.2 mm 5 mps 749 mmHg 78%
    16:00 +20°C° 0.2 mm 5 mps 749 mmHg 81%
    17:00 +20°C° 0.4 mm 4 mps 749 mmHg 84%
    18:00 +19°C° 0.4 mm 4 mps 750 mmHg 87%
    19:00 +19°C° 0.4 mm 4 mps 750 mmHg 90%
    20:00 +18°C° 0.3 mm 4 mps 750 mmHg 91%
    21:00 +18°C° 0.3 mm 4 mps 751 mmHg 92%
    22:00 +18°C° 0.3 mm 4 mps 751 mmHg 93%
    23:00 +18°C° 0.2 mm 4 mps 751 mmHg 93%
    Show more